Weather History for KCVG - August, 2014

Change the Weather History Date:

Tuesday, August 26, 2014

  Actual Average Record
Temperature  
Mean Temperature 80 °F 74 °F  
Max Temperature 90 °F 84 °F 98 °F (1948)
Min Temperature 69 °F 64 °F 49 °F (1946)
Degree Days  
Heating Degree Days 0 0  
Month to date heating degree days 0 0  
Since 1 June heating degree days 8 15  
Since 1 July heating degree days 5 0  
Cooling Degree Days 15 9  
Month to date cooling degree days 254 266  
Year to date cooling degree days 879 925  
Since 1 June cooling degree days 745 831  
Growing Degree Days 30 (Base 50)    
Moisture  
Dew Point 68 °F    
Average Humidity 70    
Maximum Humidity 90    
Minimum Humidity 50    
Precipitation  
Precipitation T in 0.10 in 2.55 in (1890)
Month to date precipitation 3.78 2.91  
Year to date precipitation 30.30 29.29  
Snow  
Snow 0.00 in 0.00 in 0.00 in ()
Month to date snowfall 0.0 0.0  
Since 1 June snowfall 0.0 0.0  
Since 1 July snowfall 0.0 0.0  
Snow Depth 0.00 in    
Sea Level Pressure  
Sea Level Pressure 30.08 in    
Wind  
Wind Speed 3 mph (South)    
Max Wind Speed 14 mph    
Max Gust Speed 18 mph    
Visibility 9 miles    
Events Thunderstorm    
T = Trace of Precipitation, MM = Missing Value Source: NWS Daily Summary

Daily Weather History Graph

Daily Weather History Graph

Search for Another Location

Airport or City:

Trip Planner

Search our weather history database for the weather conditions in past years. The results will help you decide how hot, cold, wet, or windy it might be!

Date:

Astronomy

Aug. 26, 2014 Rise Set
Actual Time 7:02 AM EDT 8:18 PM EDT
Civil Twilight 6:34 AM EDT 8:45 PM EDT
Nautical Twilight 6:01 AM EDT 9:18 PM EDT
Astronomical Twilight 5:26 AM EDT 9:53 PM EDT
Moon 8:00 AM EDT (8/26) 8:40 PM EDT (8/26)
Length of Visible Light 14h 11m
Length of Day
13h 16m
New Moon, 1% of the Moon is Illuminated
Aug 26
New Moon
Sep 2
First Quarter
Sep 8
Full
Sep 15
Last Quarter
Sep 24
New

Hourly Weather History & Observations

Time (EDT) Temp. Heat Index Dew Point Humidity Pressure Visibility Wind Dir Wind Speed Gust Speed Precip Events Conditions
12:52 AM 75.0 °F - 68.0 °F 79% 30.06 in 9.0 mi South 3.5 mph - N/A   Partly Cloudy
1:52 AM 73.0 °F - 66.9 °F 81% 30.06 in 9.0 mi South 5.8 mph - N/A   Partly Cloudy
2:52 AM 73.0 °F - 66.9 °F 81% 30.04 in 10.0 mi South 4.6 mph - N/A   Scattered Clouds
3:52 AM 71.1 °F - 66.9 °F 87% 30.04 in 9.0 mi South 4.6 mph - N/A   Partly Cloudy
4:52 AM 73.4 °F - 66.2 °F 78% 30.09 in 10.0 mi Calm Calm - N/A   Scattered Clouds
5:52 AM 71.1 °F - 66.0 °F 84% 30.07 in 10.0 mi Calm Calm - N/A   Scattered Clouds
6:52 AM 70.0 °F - 66.0 °F 87% 30.08 in 9.0 mi Calm Calm - N/A   Scattered Clouds
7:52 AM 71.1 °F - 66.0 °F 84% 30.11 in 8.0 mi SE 4.6 mph - N/A   Scattered Clouds
8:52 AM 73.9 °F - 66.9 °F 79% 30.12 in 8.0 mi SSE 3.5 mph - N/A   Scattered Clouds
9:52 AM 78.1 °F - 68.0 °F 71% 30.13 in 10.0 mi Calm Calm - N/A   Scattered Clouds
10:52 AM 82.4 °F 83.9 °F 64.4 °F 54% 30.16 in 10.0 mi SW 4.6 mph - N/A   Partly Cloudy
11:52 AM 82.9 °F 85.0 °F 66.0 °F 56% 30.13 in 10.0 mi South 4.6 mph - N/A   Partly Cloudy
12:52 PM 87.1 °F 90.6 °F 68.0 °F 53% 30.12 in 10.0 mi Calm Calm - N/A   Scattered Clouds
1:52 PM 86.0 °F 89.4 °F 68.0 °F 55% 30.10 in 9.0 mi SSW 3.5 mph - N/A   Scattered Clouds
2:52 PM 88.0 °F 92.1 °F 69.1 °F 53% 30.09 in 9.0 mi Calm Calm - N/A   Mostly Cloudy
3:52 PM 90.0 °F 93.6 °F 68.0 °F 48% 30.07 in 9.0 mi Calm Calm - N/A   Mostly Cloudy
4:52 PM 88.0 °F 91.4 °F 68.0 °F 51% 30.06 in 8.0 mi Calm Calm - N/A   Mostly Cloudy
5:52 PM 88.0 °F 92.1 °F 69.1 °F 53% 30.05 in 8.0 mi South 5.8 mph - N/A   Mostly Cloudy
6:52 PM 87.1 °F 91.3 °F 69.1 °F 55% 30.06 in 8.0 mi East 9.2 mph 17.3 mph N/A Thunderstorm Thunderstorm
7:30 PM 80.6 °F 83.9 °F 69.8 °F 70% 30.09 in 8.0 mi South 5.8 mph - 0.00 in   Mostly Cloudy
7:52 PM 80.1 °F 83.2 °F 70.0 °F 71% 30.07 in 7.0 mi East 8.1 mph - 0.00 in   Mostly Cloudy
8:29 PM 78.8 °F - 66.2 °F 65% 30.09 in 9.0 mi South 5.8 mph - N/A   Mostly Cloudy
8:52 PM 75.9 °F - 66.0 °F 71% 30.06 in 10.0 mi South 5.8 mph - N/A   Mostly Cloudy
9:52 PM 75.0 °F - 69.1 °F 82% 30.04 in 7.0 mi South 6.9 mph - N/A   Scattered Clouds
10:52 PM 77.0 °F - 69.1 °F 76% 30.06 in 8.0 mi SSW 3.5 mph - N/A   Scattered Clouds
11:52 PM 75.9 °F - 68.0 °F 76% 30.07 in 8.0 mi Calm Calm - N/A   Clear